KI2K Weather Reports


Display with metric or nautical units.
time (UTC)temp
F
wind
direction
speed
MPH
gust
MPH
rain 1hr
in
rain 24hr
in
rain mn
in
humidity
%
barometer
mb
20260509090132 53 263 0.0 0.0 0.00 0.08 0.08 99 1006.8
20260509085629 54 273 0.0 1.0 0.00 0.08 0.08 99 1006.6
20260509085125 54 268 0.0 0.0 0.00 0.08 0.08 99 1006.6
20260509084623 54 277 0.0 1.0 0.00 0.08 0.08 99 1006.9
20260509084120 54 242 1.0 1.0 0.00 0.08 0.08 99 1006.8
20260509083617 54 297 1.0 2.0 0.00 0.08 0.08 99 1007.0
20260509083113 54 299 1.0 1.0 0.00 0.08 0.08 99 1006.7
20260509082610 54 272 2.0 2.0 0.00 0.08 0.08 99 1007.0
20260509082102 54 268 1.0 1.0 0.07 0.08 0.08 99 1007.2
20260509081559 54 270 0.0 0.0 0.07 0.08 0.08 99 1007.0
20260509081056 54 268 1.0 2.0 0.07 0.08 0.08 99 1006.8
20260509080554 54 248 1.0 1.0 0.05 0.07 0.07 99 1006.9
20260509080052 54 267 0.0 0.0 0.05 0.07 0.07 99 1007.1
20260509075549 54 276 0.0 0.0 0.00 0.06 0.06 99 1007.1
20260509075047 54 290 0.0 1.0 0.00 0.06 0.06 99 1007.1
20260509074543 54 317 0.0 0.0 0.00 0.06 0.06 99 1007.0
20260509074040 54 279 0.0 0.0 0.00 0.06 0.06 99 1006.9
20260509073537 54 276 0.0 0.0 0.00 0.06 0.06 99 1007.1
20260509073033 54 267 0.0 0.0 0.00 0.06 0.06 99 1006.9
20260509072529 54 286 0.0 1.0 0.00 0.06 0.06 99 1007.0
20260509072027 55 276 1.0 1.0 0.00 0.06 0.06 99 1006.9
20260509071523 55 307 1.0 1.0 0.00 0.06 0.06 99 1007.0
20260509071021 55 274 1.0 1.0 0.00 0.06 0.06 99 1007.2
20260509070518 55 285 1.0 1.0 0.00 0.06 0.06 99 1007.1
20260509070014 55 273 0.0 0.0 0.00 0.06 0.06 99 1007.4
20260509065509 55 260 1.0 1.0 0.00 0.06 0.06 99 1007.5
20260509065006 55 224 0.0 1.0 0.00 0.06 0.06 99 1007.5
20260509064504 55 268 0.0 1.0 0.00 0.06 0.06 99 1007.5
20260509064002 55 275 0.0 1.0 0.00 0.06 0.06 99 1007.5
20260509063457 55 275 0.0 0.0 0.00 0.06 0.06 99 1007.6
20260509062954 55 277 1.0 1.0 0.07 0.06 0.06 99 1007.5
20260509062451 55 295 2.0 3.0 0.07 0.06 0.06 99 1007.7
20260509061949 55 279 0.0 0.0 0.05 0.05 0.05 99 1007.8
20260509061446 55 276 1.0 1.0 0.05 0.05 0.05 99 1007.8
20260509060943 55 276 0.0 1.0 0.07 0.04 0.04 99 1007.8
20260509060441 55 261 0.0 1.0 0.07 0.04 0.04 99 1007.7
20260509055936 55 240 2.0 2.0 0.07 0.04 0.04 99 1007.9
20260509055431 55 286 0.0 1.0 0.00 0.03 0.03 99 1008.2
20260509054928 55 268 0.0 1.0 0.05 0.03 0.03 99 1008.1
20260509054424 55 266 0.0 1.0 0.05 0.03 0.03 99 1008.3
20260509053923 55 227 1.0 2.0 0.07 0.02 0.02 99 1008.4
20260509053421 55 258 1.0 1.0 0.07 0.02 0.02 99 1008.5
20260509052918 55 281 1.0 1.0 0.07 0.02 0.02 99 1008.5
20260509052415 55 261 1.0 1.0 0.00 0.01 0.01 99 1008.6
20260509051913 55 298 1.0 1.0 0.00 0.01 0.01 99 1008.4
20260509051410 55 265 1.0 1.0 0.00 0.01 0.01 99 1008.6
20260509050907 55 233 0.0 2.0 0.00 0.01 0.01 99 1008.5
20260509050404 55 278 1.0 1.0 0.00 0.01 0.01 99 1008.3
20260509045855 55 265 1.0 1.0 0.00 0.01 0.01 99 1008.6
20260509045352 54 280 1.0 2.0 0.00 0.01 0.01 99 1008.4
20260509044849 54 283 0.0 1.0 0.00 0.01 0.01 99 1008.4
20260509044347 54 280 1.0 2.0 0.00 0.01 0.01 99 1008.5
20260509043844 54 275 1.0 1.0 0.00 0.01 0.01 99 1008.5
20260509043339 54 274 1.0 1.0 0.00 0.01 0.01 99 1008.5
20260509042835 54 198 0.0 1.0 0.07 0.01 0.01 99 1008.3
20260509042332 54 276 0.0 0.0 0.07 0.01 0.01 99 1008.3
20260509041829 54 264 1.0 1.0 0.00 0.00 0.00 99 1008.3
20260509041326 54 276 0.0 1.0 0.00 0.00 0.00 99 1008.6
20260509040824 54 276 0.0 1.0 0.00 0.00 0.00 99 1008.6
20260509040321 54 264 0.0 1.0 0.05 0.00 0.00 99 1008.4
20260509035818 54 282 0.0 1.0 0.05 0.58 0.58 99 1008.5
20260509035315 54 280 1.0 1.0 0.00 0.57 0.57 99 1008.5
20260509034811 54 287 0.0 1.0 0.00 0.57 0.57 99 1008.5
20260509034309 54 264 0.0 1.0 0.00 0.57 0.57 99 1008.8
20260509033806 54 269 0.0 0.0 0.00 0.57 0.57 99 1008.6
20260509033303 54 285 0.0 1.0 0.00 0.57 0.57 99 1008.5
20260509032800 54 266 0.0 1.0 0.00 0.57 0.57 99 1008.5
20260509032257 54 283 1.0 1.0 0.00 0.57 0.57 99 1008.5
20260509031755 54 295 0.0 0.0 0.00 0.57 0.57 99 1008.5
20260509031252 55 268 0.0 1.0 0.00 0.57 0.57 99 1008.4
20260509030749 55 275 0.0 0.0 0.07 0.57 0.57 99 1008.7
20260509030247 55 258 1.0 1.0 0.07 0.57 0.57 99 1008.5
20260509025744 55 279 0.0 0.0 0.05 0.56 0.56 99 1008.5
20260509025239 55 276 0.0 0.0 0.05 0.56 0.56 99 1008.7
20260509024735 55 273 0.0 0.0 0.00 0.55 0.55 99 1008.4
20260509024231 55 273 0.0 0.0 0.07 0.55 0.55 99 1008.5
20260509023729 55 281 0.0 1.0 0.07 0.55 0.55 99 1008.7
20260509023226 55 257 1.0 2.0 0.00 0.54 0.54 99 1008.5
20260509022721 55 261 0.0 0.0 0.05 0.54 0.54 99 1008.7
20260509022219 55 254 1.0 1.0 0.05 0.54 0.54 99 1008.5
20260509021716 55 275 0.0 0.0 0.00 0.53 0.53 99 1008.5
20260509021214 55 271 2.0 2.0 0.07 0.53 0.53 99 1008.7
20260509020711 55 278 1.0 1.0 0.07 0.53 0.53 99 1008.6
20260509020208 55 273 1.0 1.0 0.12 0.53 0.53 99 1008.6
20260509015706 55 288 0.0 1.0 0.05 0.52 0.52 99 1008.7
20260509015204 55 286 1.0 1.0 0.07 0.51 0.51 99 1008.7
20260509014700 55 280 1.0 1.0 0.07 0.51 0.51 99 1008.9
20260509014157 55 277 1.0 2.0 0.00 0.50 0.50 99 1008.8
20260509013654 55 271 1.0 1.0 0.05 0.50 0.50 99 1008.5
20260509013150 55 256 2.0 2.0 0.05 0.50 0.50 99 1008.8
20260509012646 55 328 1.0 1.0 0.07 0.49 0.49 99 1008.5
20260509012143 55 273 0.0 0.0 0.07 0.49 0.49 99 1008.5
20260509011641 55 264 0.0 1.0 0.00 0.48 0.48 99 1008.4
20260509011138 55 295 1.0 2.0 0.00 0.48 0.48 99 1008.5
20260509010636 55 275 0.0 0.0 0.07 0.48 0.48 99 1008.5
20260509010132 55 270 0.0 1.0 0.07 0.48 0.48 99 1008.6
20260509005630 55 277 0.0 0.0 0.05 0.47 0.47 99 1008.5
20260509005126 55 270 2.0 2.0 0.05 0.47 0.47 99 1008.6
20260509004622 55 261 0.0 1.0 0.07 0.46 0.46 99 1008.6
20260509004119 55 282 2.0 2.0 0.07 0.46 0.46 99 1008.4
20260509003618 55 277 0.0 1.0 0.05 0.45 0.45 99 1008.7
20260509003115 55 276 0.0 1.0 0.05 0.45 0.45 99 1008.4
20260509002612 55 280 1.0 1.0 0.07 0.44 0.44 99 1008.4
20260509002109 55 262 0.0 0.0 0.07 0.44 0.44 99 1008.6
20260509001607 55 276 1.0 1.0 0.00 0.43 0.43 99 1008.4
20260509001102 55 273 0.0 0.0 0.05 0.43 0.43 99 1008.4
20260509000601 55 184 0.0 0.0 0.05 0.43 0.43 99 1008.2
20260509000056 55 246 1.0 1.0 0.12 0.42 0.42 99 1008.4
20260508235554 55 267 1.0 2.0 0.19 0.42 0.42 99 1008.5
20260508235050 55 256 1.0 2.0 0.12 0.40 0.40 99 1008.7
20260508234548 55 279 1.0 1.0 0.12 0.39 0.39 99 1008.9
20260508234044 55 271 0.0 0.0 0.19 0.38 0.38 99 1008.9
20260508233544 55 277 0.0 0.0 0.14 0.36 0.36 99 1008.8
20260508233041 55 279 1.0 1.0 0.19 0.35 0.35 99 1008.8
20260508232538 55 277 0.0 1.0 0.12 0.34 0.34 99 1008.9
20260508232035 55 271 1.0 2.0 0.12 0.33 0.33 99 1009.1
20260508231532 55 291 2.0 2.0 0.12 0.32 0.32 99 1008.8
20260508231029 55 276 0.0 0.0 0.12 0.31 0.31 99 1008.7
20260508230526 55 298 1.0 2.0 0.12 0.30 0.30 99 1008.8
20260508230022 55 209 1.0 1.0 0.19 0.29 0.29 99 1008.7
20260508225520 55 280 1.0 1.0 0.24 0.28 0.28 99 1009.2
20260508225017 55 279 0.0 1.0 0.31 0.26 0.26 99 1009.0
20260508224514 55 291 1.0 2.0 0.24 0.24 0.24 99 1009.3
20260508224011 55 291 1.0 1.0 0.12 0.22 0.22 99 1009.4
20260508223509 56 274 0.0 0.0 0.07 0.20 0.20 99 1009.1
20260508223006 55 268 0.0 0.0 0.12 0.20 0.20 98 1008.9
20260508222503 55 277 0.0 0.0 0.12 0.19 0.19 98 1008.9
20260508221959 56 271 0.0 0.0 0.19 0.18 0.18 98 1008.8
20260508221456 56 278 0.0 0.0 0.17 0.17 0.17 98 1008.8
20260508220952 56 274 0.0 0.0 0.12 0.15 0.15 97 1008.8
20260508220448 56 278 0.0 0.0 0.12 0.14 0.14 97 1008.9
20260508215945 56 280 0.0 0.0 0.12 0.13 0.13 97 1009.1
20260508215443 56 280 0.0 0.0 0.12 0.12 0.12 97 1008.8
20260508214938 56 280 0.0 1.0 0.26 0.12 0.12 96 1009.1
20260508214437 56 276 0.0 0.0 0.31 0.10 0.10 96 1009.1
20260508213932 56 279 1.0 1.0 0.19 0.07 0.07 95 1009.4
20260508213430 57 289 0.0 1.0 0.12 0.05 0.05 94 1009.4
20260508212926 57 285 0.0 1.0 0.12 0.04 0.04 93 1009.5
20260508212423 57 275 1.0 1.0 0.17 0.04 0.04 91 1009.1
20260508211918 58 281 1.0 1.0 0.05 0.02 0.02 90 1009.0
20260508211414 58 286 1.0 1.0 0.00 0.01 0.01 88 1008.9
20260508210912 59 277 0.0 0.0 0.00 0.01 0.01 86 1008.8
20260508210408 60 285 0.0 1.0 0.07 0.01 0.01 82 1008.7
20260508205904 61 280 0.0 0.0 0.07 0.01 0.01 78 1008.8
20260508205402 61 285 1.0 1.0 0.00 0.00 0.00 76 1008.8
20260508204858 61 277 1.0 1.0 0.00 0.00 0.00 77 1008.9
20260508204355 61 279 1.0 1.0 0.00 0.00 0.00 77 1008.7
20260508203850 62 280 0.0 1.0 0.00 0.00 0.00 75 1008.7
20260508203347 63 278 0.0 1.0 0.00 0.00 0.00 74 1008.7
20260508202842 64 275 1.0 1.0 0.00 0.00 0.00 70 1008.6
20260508202340 65 304 3.0 5.0 0.00 0.00 0.00 67 1008.4
20260508201837 65 279 1.0 1.0 0.00 0.00 0.00 65 1008.7
20260508201334 65 273 1.0 1.0 0.00 0.00 0.00 64 1008.7
20260508200830 65 300 1.0 2.0 0.00 0.00 0.00 62 1008.7
20260508200327 65 283 1.0 1.0 0.00 0.00 0.00 63 1008.9
20260508195823 65 255 3.0 3.0 0.00 0.00 0.00 62 1008.7
20260508195320 66 279 0.0 1.0 0.00 0.00 0.00 61 1009.0
20260508194816 66 268 0.0 1.0 0.00 0.00 0.00 62 1008.6
20260508194314 66 282 1.0 1.0 0.00 0.00 0.00 61 1008.8
20260508193811 66 282 1.0 1.0 0.00 0.00 0.00 60 1008.8
20260508193307 66 268 1.0 1.0 0.00 0.00 0.00 62 1008.8
20260508192803 66 274 1.0 1.0 0.00 0.00 0.00 61 1008.9
20260508192301 66 273 1.0 1.0 0.00 0.00 0.00 62 1009.0
20260508191758 66 263 2.0 3.0 0.00 0.00 0.00 60 1009.2
20260508191255 66 298 0.0 1.0 0.00 0.00 0.00 62 1009.4
20260508190752 65 216 2.0 3.0 0.00 0.00 0.00 62 1009.5
20260508190248 65 282 2.0 2.0 0.00 0.00 0.00 64 1009.5
20260508185744 65 235 1.0 1.0 0.00 0.00 0.00 63 1009.5
20260508185242 65 243 2.0 3.0 0.00 0.00 0.00 64 1009.9
20260508184739 65 281 1.0 1.0 0.00 0.00 0.00 66 1009.9
20260508184236 64 273 1.0 1.0 0.00 0.00 0.00 64 1009.7
20260508183733 64 278 0.0 1.0 0.00 0.00 0.00 65 1010.0
20260508183229 64 258 1.0 2.0 0.00 0.00 0.00 64 1010.0
20260508182725 64 242 1.0 1.0 0.00 0.00 0.00 64 1010.0
20260508182222 64 296 2.0 3.0 0.00 0.00 0.00 64 1010.5
20260508181718 64 308 1.0 1.0 0.00 0.00 0.00 63 1010.4
20260508181215 64 300 5.0 6.0 0.00 0.00 0.00 63 1010.2
20260508180712 64 275 1.0 2.0 0.00 0.00 0.00 64 1010.3
20260508180209 64 304 1.0 2.0 0.00 0.00 0.00 64 1010.6
20260508175705 64 309 1.0 2.0 0.00 0.00 0.00 64 1010.6
20260508175202 64 251 0.0 1.0 0.00 0.00 0.00 64 1010.5
20260508174700 64 305 2.0 2.0 0.00 0.00 0.00 63 1010.4
20260508174156 64 231 0.0 1.0 0.00 0.00 0.00 65 1010.5
20260508173653 64 247 2.0 3.0 0.00 0.00 0.00 64 1010.4
20260508173149 64 250 2.0 2.0 0.00 0.00 0.00 65 1010.8
20260508172647 64 278 1.0 1.0 0.00 0.00 0.00 64 1010.9
20260508172143 64 265 1.0 1.0 0.00 0.00 0.00 64 1010.9
20260508171640 64 282 3.0 3.0 0.00 0.00 0.00 64 1010.9
20260508171136 64 278 2.0 2.0 0.00 0.00 0.00 64 1011.0
20260508170633 63 269 1.0 1.0 0.00 0.00 0.00 65 1011.0
20260508170131 64 294 1.0 1.0 0.00 0.00 0.00 64 1011.2
20260508165628 64 269 3.0 3.0 0.00 0.00 0.00 61 1011.2
20260508165125 63 283 1.0 1.0 0.00 0.00 0.00 61 1011.3
20260508164621 64 279 3.0 3.0 0.00 0.00 0.00 60 1011.5
20260508164118 64 341 3.0 3.0 0.00 0.00 0.00 60 1011.4
20260508163615 65 270 3.0 5.0 0.00 0.00 0.00 61 1011.4
20260508163112 65 282 3.0 3.0 0.00 0.00 0.00 60 1011.7
20260508162609 65 253 2.0 2.0 0.00 0.00 0.00 61 1011.7
20260508162106 64 258 5.0 8.0 0.00 0.00 0.00 61 1011.9
20260508161603 65 297 3.0 3.0 0.00 0.00 0.00 59 1011.9
20260508161100 65 258 3.0 3.0 0.00 0.00 0.00 61 1011.9
20260508160559 65 245 2.0 2.0 0.00 0.00 0.00 60 1012.0
20260508160055 66 221 3.0 5.0 0.00 0.00 0.00 58 1012.0
20260508155552 66 283 2.0 2.0 0.00 0.00 0.00 61 1011.9
20260508155049 65 207 2.0 2.0 0.00 0.00 0.00 59 1011.9
20260508154546 63 264 2.0 2.0 0.00 0.00 0.00 65 1012.1
20260508154043 63 299 2.0 2.0 0.00 0.00 0.00 63 1012.2
20260508153540 63 279 3.0 5.0 0.00 0.00 0.00 62 1012.1
20260508153036 64 305 4.0 6.0 0.00 0.00 0.00 61 1012.1
20260508152534 63 261 1.0 1.0 0.00 0.00 0.00 64 1011.9
20260508152029 64 311 5.0 7.0 0.00 0.00 0.00 61 1012.1
20260508151526 64 265 2.0 3.0 0.00 0.00 0.00 62 1012.0
20260508151022 63 271 2.0 2.0 0.00 0.00 0.00 60 1012.0
20260508150520 62 288 1.0 1.0 0.00 0.00 0.00 62 1012.1
20260508150015 63 282 2.0 2.0 0.00 0.00 0.00 62 1012.0
20260508145512 64 335 2.0 3.0 0.00 0.00 0.00 60 1012.2
20260508145008 65 210 4.0 6.0 0.00 0.00 0.00 60 1012.3
20260508144506 63 299 5.0 8.0 0.00 0.00 0.00 60 1012.2
20260508144004 63 226 4.0 6.0 0.00 0.00 0.00 61 1012.4
20260508143501 63 343 3.0 3.0 0.00 0.00 0.00 61 1012.6
20260508142957 62 292 3.0 3.0 0.00 0.00 0.00 62 1012.4
20260508142454 62 292 4.0 5.0 0.00 0.00 0.00 61 1012.4
20260508141950 62 270 3.0 6.0 0.00 0.00 0.00 62 1012.5
20260508141447 62 277 3.0 3.0 0.00 0.00 0.00 63 1012.6
20260508140945 61 271 4.0 6.0 0.00 0.00 0.00 62 1012.5
20260508140442 61 328 3.0 3.0 0.00 0.00 0.00 62 1012.6
20260508135937 60 302 4.0 6.0 0.00 0.00 0.00 63 1012.6
20260508135434 60 229 4.0 7.0 0.00 0.00 0.00 63 1012.3
20260508134931 60 284 3.0 5.0 0.00 0.00 0.00 64 1012.6
20260508134427 60 298 3.0 5.0 0.00 0.00 0.00 63 1012.8
20260508133924 59 271 1.0 2.0 0.00 0.00 0.00 64 1012.7
20260508133422 59 238 3.0 5.0 0.00 0.00 0.00 63 1012.7
20260508132918 59 326 3.0 5.0 0.00 0.00 0.00 64 1012.7
20260508132416 59 248 2.0 2.0 0.00 0.00 0.00 65 1012.6
20260508131913 57 290 3.0 3.0 0.00 0.00 0.00 66 1012.7
20260508131408 57 312 5.0 7.0 0.00 0.00 0.00 65 1012.9
20260508130906 57 293 3.0 5.0 0.00 0.00 0.00 66 1012.9
20260508130402 56 301 1.0 1.0 0.00 0.00 0.00 68 1012.8
20260508125858 57 284 4.0 5.0 0.00 0.00 0.00 66 1012.8
20260508125354 56 264 2.0 3.0 0.00 0.00 0.00 67 1012.7
20260508124852 55 222 3.0 3.0 0.00 0.00 0.00 68 1012.8
20260508124350 55 262 2.0 2.0 0.00 0.00 0.00 69 1013.0
20260508123848 54 252 2.0 2.0 0.00 0.00 0.00 68 1012.7
20260508123346 54 272 2.0 2.0 0.00 0.00 0.00 68 1012.9
20260508122841 54 270 6.0 10.0 0.00 0.00 0.00 68 1012.7
20260508122333 53 253 1.0 2.0 0.00 0.00 0.00 70 1012.8
20260508121830 53 302 2.0 2.0 0.00 0.00 0.00 70 1012.7
20260508121329 53 257 2.0 2.0 0.00 0.00 0.00 71 1012.9
20260508120826 52 241 1.0 2.0 0.00 0.00 0.00 71 1012.9
20260508120324 52 246 4.0 6.0 0.00 0.00 0.00 70 1012.6
20260508115821 52 283 4.0 6.0 0.00 0.00 0.00 71 1012.8
20260508115318 51 273 1.0 1.0 0.00 0.00 0.00 71 1012.6
20260508114815 51 257 1.0 1.0 0.00 0.00 0.00 73 1012.8
20260508114312 51 293 1.0 2.0 0.00 0.00 0.00 73 1012.6
20260508113808 50 208 3.0 3.0 0.00 0.00 0.00 74 1012.7
20260508113307 50 261 1.0 1.0 0.00 0.00 0.00 73 1012.7
20260508112803 49 312 3.0 3.0 0.00 0.00 0.00 74 1012.7
20260508112300 49 309 2.0 2.0 0.00 0.00 0.00 74 1012.5
20260508111756 49 317 1.0 2.0 0.00 0.00 0.00 75 1012.5
20260508111254 49 274 1.0 1.0 0.00 0.00 0.00 75 1012.4
20260508110750 49 305 1.0 2.0 0.00 0.00 0.00 75 1012.6
20260508110248 48 281 1.0 2.0 0.00 0.00 0.00 75 1012.6
20260508105742 48 251 1.0 1.0 0.00 0.00 0.00 75 1012.5
20260508105239 48 277 1.0 2.0 0.00 0.00 0.00 75 1012.5
20260508104736 48 246 1.0 1.0 0.00 0.00 0.00 76 1012.6
20260508104233 48 261 1.0 1.0 0.00 0.00 0.00 76 1012.3
20260508103730 48 283 1.0 1.0 0.00 0.00 0.00 76 1012.4
20260508103227 48 260 1.0 1.0 0.00 0.00 0.00 75 1012.4
20260508102724 48 279 1.0 2.0 0.00 0.00 0.00 75 1012.5
20260508102222 48 285 1.0 1.0 0.00 0.00 0.00 76 1012.5
20260508101719 48 266 0.0 1.0 0.00 0.00 0.00 75 1012.3
20260508101217 48 274 1.0 1.0 0.00 0.00 0.00 75 1012.3
20260508100714 49 276 1.0 1.0 0.00 0.00 0.00 75 1012.1
20260508100212 49 271 2.0 2.0 0.00 0.00 0.00 75 1012.5
20260508095708 49 231 1.0 2.0 0.00 0.00 0.00 75 1012.2
20260508095206 49 273 0.0 0.0 0.00 0.00 0.00 75 1012.4
20260508094702 49 268 0.0 1.0 0.00 0.00 0.00 76 1012.5
20260508094159 49 277 1.0 2.0 0.00 0.00 0.00 75 1012.3
20260508093656 49 282 1.0 1.0 0.00 0.00 0.00 76 1012.2
20260508093154 49 283 1.0 1.0 0.00 0.00 0.00 74 1012.2
20260508092651 49 291 1.0 2.0 0.00 0.00 0.00 76 1012.3
20260508092149 49 257 3.0 3.0 0.00 0.00 0.00 76 1012.3
20260508091646 49 268 1.0 1.0 0.00 0.00 0.00 75 1012.2
20260508091143 49 280 1.0 1.0 0.00 0.00 0.00 75 1012.3
20260508090641 49 281 2.0 2.0 0.00 0.00 0.00 76 1012.4